星链-5890 (STARLINK-5890 )

导读 | 星芒AI

STARLINK-5890 是 SpaceX Starlink 项目中的一颗低轨通信卫星,属于第二代星链卫星群。该卫星于2023年发射,旨在为全球用户提供高速、低延迟的互联网服务。它运行在约550公里高的近地轨道,采用先进推进系统和激光通信技术,提升网络效率与稳定性。STARLINK-5890 的部署有助于扩大 Starlink 在偏远地区的覆盖范围,支持更多用户接入互联网,同时为未来全球宽带通信网络建设奠定基础。

基本信息
目录编号:
57265
目录名称:
STARLINK-5890
国际标识:
2023-094AZ
轨道中心:
EARTH
卫星名称:
星链-5890
卫星全名:
星链-5890 (STARLINK-5890 )
卫星状态:
在轨 (已飞行898 天)
发射日期:
2023-07-07 UTC
国别 :
美国 (US)
星等 :
--
轨道信息
数据来源 国际轨道数据
星历时间: 2025-12-21T12:00:02+0800
12小时前
查看轨道信息
半长轴: 6862.669km
偏心率: 0.0002432
轨道倾角: 43.002°
近地点辐角 269.592°
升交点赤经 80.270°
平近点角 28.597°
近地点: 482.862km
远地点: 486.202km
周期: 94.297分钟
每日圈数: 15.27085
详细信息
固有亮度:
5
最大亮度:
2.4
卫星平台:
Starlink v1.5
覆盖范围:
全球
运营商:
太空探索技术公司
运营商所在国:
美国
制造商(研发单位):
太空探索技术公司
制造商所在国:
美国
使用方式:
暂无
卫星简介
星链(Starlink)计划是由太空探索技术公司(SpaceX)提出的一个巨型低轨卫星互联网星座项目,计划在2019年至2024年间在太空搭建由约1.2万颗卫星组成的“星链”网络,其中1584颗将部署在地球上空550千米处的近地轨道,并从2020年开始工作。该卫星仍在工作。
2D轨道图
3D轨道图
轨道高度分析图
轨道倾角分析图
轨道综合分析图
查看轨道综合分析图